Flag for U.S.A. Weather past 2 weeks in Sacramento, California, U.S.A.

Now
59 °F

Overcast.


Feels Like: 57 °F
Forecast: 52 / 63 °F
Wind: 10 mph from Northwest

Location: Sacramento Executive Airport

Current Time: Dec 22, 2014 at 10:42:14 AM

Latest Report: Dec 22, 2014 at 9:53 AM


Visibility: 10 mi

Pressure: 30.29 "Hg

Humidity: 84%

Dew point: 54 °F

Location of SacramentoLocation

Historic Weather in Sacramento — Graph

°F

Sacramento temperature yesterday

Maximum temperature yesterday: 65 °F (at 2:53 PM)
Minimum temperature yesterday: 57 °F (at 12:53 AM)
Average temperature yesterday: 60 °F

Past Weeks' High & Low Weather Summary

 TemperatureHumidityPressure
High65 °F (Dec 21, 2:53 PM)100% (Dec 7, 9:57 AM)30.29 "Hg (Dec 7, 9:57 AM)
Low45 °F (Dec 13, 12:56 AM)58% (Dec 16, 2:53 PM)29.53 "Hg (Dec 11, 8:53 AM)
Average54 °F86%30.06 "Hg
* Reported Dec 7 8:53 AM — Dec 22 8:53 AM, Sacramento, Weather by CustomWeather, © 2014

Note: Actual official high and low records may vary slightly from our data, if they occured in-between our weather recording intervals... More about our weather records

Advertising

Sacramento weather history for previous 24 hours

 ConditionsComfort  
Time TempWeatherWind HumidityBarometerVisibility
8:53 AM
Dec 22
58 °FOvercast.7 mph87%30.28 "Hg10 mi
7:53 AM58 °FLow clouds.9 mph87%30.27 "Hg10 mi
6:53 AM58 °FOvercast.8 mph87%30.26 "Hg10 mi
5:53 AM58 °FOvercast.7 mph90%30.25 "Hg10 mi
4:53 AM58 °FOvercast.5 mph90%30.25 "Hg9 mi
3:53 AM58 °FOvercast.3 mph93%30.25 "Hg8 mi
2:53 AM58 °FFog.6 mph93%30.26 "Hg5 mi
1:53 AM58 °FFog.5 mph93%30.26 "Hg6 mi
12:53 AM58 °FFog.7 mph93%30.26 "Hg5 mi
11:53 PM
Dec 21
58 °FFog.9 mph93%30.27 "Hg4 mi
10:53 PM57 °FPassing clouds.3 mph93%30.27 "Hg8 mi
10:03 PM59 °FPassing clouds.5 mph88%30.27 "Hg10 mi
8:53 PM60 °FOvercast.3 mph90%30.27 "Hg10 mi
7:53 PM61 °FOvercast.No wind87%30.25 "Hg10 mi
6:53 PM60 °FOvercast.No wind90%30.25 "Hg10 mi
5:53 PM60 °FPassing clouds.No wind90%30.24 "Hg10 mi
4:53 PM63 °FClear.No wind81%30.24 "Hg10 mi
3:53 PM65 °FSunny.No wind76%30.23 "Hg10 mi
2:53 PM65 °FSunny.6 mph78%30.23 "Hg10 mi
1:53 PM64 °FMore clouds than sun.3 mph78%30.24 "Hg10 mi
12:53 PM63 °FOvercast.6 mph81%30.25 "Hg10 mi
11:53 AM63 °FOvercast.7 mph81%30.26 "Hg10 mi
10:53 AM61 °FOvercast.6 mph87%30.28 "Hg10 mi
Weather by CustomWeather, © 2014

See weather overviewHow to use our weather pages